Showing default

PATHFINDER 1, 41787

Orbit data source: Space-Track

PATHFINDER 1, 41787 is a payload satellite owned by BlackSky Global (US) in SSO that was launched on Mon, 26 Sep 2016 UTC via a PSLV launch vehicle from the Sirharikota (SRI). Payloads include a variety of satellites, spacecraft, and rockets equipped with specific instruments for various scientific and technological missions. These include communications satellites like Starlink; space stations such as the ISS; scientific satellites like the Hubble; Earth observation satellites from companies like Planet Labs, Umbra, and HawkEye 360; GPS; miniature CubeSats for education and research; and military/defense satellites.

Loading next visibility...
PATHFINDER 1 details
Identifier
41787, 2016-059E
Orbit
SSO
Last TLE update9 hours ago
Origin
Flag of USBlackSky Global (US)
ManufacturerSpaceflight Ind
MissionOperational Commercial Imaging
Bus & MotorBSKY, Unknown motor
Mass~44 kg wet, 44 kg dry
Launch date (UTC)
2016-09-26 (8 years ago)
Launch vehicle
PSLV
Launch site
Sirharikota (SRI)
Object type
Payload
Rocket body
Debris
Shape & HBRBox, 1 m
Radar Cross Section1.000 m², Medium (>0.1 m² and < 1m²)

Expand to show TLE details & history

TLE from 9 hours ago
0 PATHFINDER 1
1 41787U 16059E   24361.49836043  .00002055  00000-0  37772-3 0  9992
2 41787  97.8203  14.6288 0030310 118.1692 242.2580 14.66361954440873
Epoch: 2024-12-26T11:57Z
Definitive object data (Epoch: 2024-12-26T11:57:38.341Z)
Latitude-0.00004°
Longitude99.74216°
Altitude685.712 km
Speed7.508 km/s
True Right ascension00h 58m 30s
True Declination0° 00' 00"
Sunlit
Object was in daylight at TLE epoch
Visualization TLE readout
Latitude44.78566°
Longitude-72.11612°
Altitude659.124 km
Speed7.543 km/s
Apparent Right ascension10h 51m 48s
Apparent Declination6° 31' 46"
Sunlit
Object is in daylight
Visualization observer readout
Local Sidereal Time20:08:28
Azimuth311.241° NW
Elevation-30.236°
Doppler factor1
Orbital elements
Apogee altitude691.124 km
Perigee altitude648.399 km
Semi-major axis7,047.899 km
Eccentricity0.003031
Inclination97.8203°
RAAN14.6288°
Arg. of periapsis118.1692°
True anomaly241.95114°
Mean anomaly242.258°
Eccentric anomaly242.10452°
Mean motion3.66821 °/min
BSTAR0.00037772
Orbital period98.14 mins
Loading maneuver chart data...
Loading historical data...
Loading historical data...
Loading historical data...
Loading historical data...
Loading historical data...
Loading historical data...
Loading historical data...

PATHFINDER 1 Visibility forecast

Observer location: undefined°, undefined

Span
Click to sort rows by Start time (UTC) header in descending order
Start Az.
Max El. time (UTC)
Max El. Az.
Max El.
End time (UTC)
End Az.
8 mins2024-12-27 01:10:35.246Z169.707° S2024-12-27 01:14:35.246Z233.793° WSW44.672°2024-12-27 01:18:35.246Z345.269° N
5 mins2024-12-27 13:07:35.246Z53.38° ENE2024-12-27 13:09:35.246Z87.176° E21.651°2024-12-27 13:12:35.246Z139.366° SSE
6 mins2024-12-27 14:44:35.246Z339.426° N2024-12-27 14:47:35.246Z278.202° WNW26.256°2024-12-27 14:50:35.246Z232.43° WSW
|